User: anonymous   Login
Location: Myra
(43.4160°N, 88.0960°W)
Time: 06:43:53
(UTC-05:00)
Language:

SL-8 R/B - Orbit

View from above orbital plane
View from above orbital plane
View from above satellite
View from above satellite

Ground track
Ground track

The orbit data is extracted from the following two-line orbital elements,

1 33066U 08031G   16240.01947354 -.00000069  00000-0  21266-4 0  9993
2 33066  48.4443  46.2820 0007955 310.6936 200.9805 14.69459774439492
Epoch (UTC): 27 August 2016 00:28:02
Eccentricity: 0.0007955
inclination: 48.4443°
perigee height: 657 km
apogee height: 668 km
right ascension of ascending node: 46.2820°
argument of perigee: 310.6936°
revolutions per day: 14.69459774
mean anomaly at epoch: 200.9805°
orbit number at epoch: 43949

The dashed part of the orbit path shows where the satellite is in the earth's shadow,  

DLR